Overview Statistics Trail Chart Weather Telemetry Raw packets
 

This is the latest recevied weather packets stored in our database for station/object LU4EGV-13. If no packets are shown the sender has not sent any weather packets the latest 10 day(s).

<< 1 2 3 4 5 6 7 >>
Time Temp. Humidity Pressure Rain* Wind** Luminosity Snow
1788636130 12.22° C 52% 1021.9 hPa 0 mm - - -
1788635523 12.22° C 58% 1021.7 hPa 0 mm - - -
1788634917 11.67° C 59% 1021.7 hPa 0 mm - - -
1788634310 10.56° C 63% 1021.9 hPa 0 mm - - -
1788633705 10° C 63% 1022 hPa 0 mm - - -
1788633100 11.67° C 50% 1022.1 hPa 0 mm - - -
1788632492 12.22° C 43% 1021.7 hPa 0 mm - - -
1788631886 12.78° C 41% 1021.6 hPa 0 mm - - -
1788631281 13.89° C 37% 1021.6 hPa 0 mm - - -
1788630675 13.33° C 40% 1021.6 hPa 0 mm - - -
1788630068 12.22° C 46% 1021.6 hPa 0 mm - - -
1788629462 12.22° C 45% 1021.9 hPa 0 mm - - -
1788628856 12.22° C 46% 1021.7 hPa 0 mm - - -
1788628260 12.78° C 43% 1021.7 hPa 0 mm - - -
1788627643 13.33° C 43% 1022 hPa 0 mm - - -
1788627036 13.33° C 42% 1021.8 hPa 0 mm - - -
1788626433 12.22° C 44% 1022 hPa 0 mm - - -
1788625832 12.78° C 44% 1022 hPa 0 mm - - -
1788625222 11.67° C 48% 1022.4 hPa 0 mm - - -
1788624611 12.22° C 48% 1022.3 hPa 0 mm - - -
1788624006 12.78° C 48% 1022.4 hPa 0 mm - - -
1788623400 12.22° C 49% 1022.5 hPa 0 mm - - -
1788622794 11.67° C 51% 1022.6 hPa 0 mm - - -
1788622188 11.67° C 50% 1022.6 hPa 0 mm - - -
1788621581 12.22° C 51% 1022.6 hPa 0 mm - - -

* Rain latest hour (hover to see other rain measurements)
** Current wind speed in m/s (hover to see current wind gust speed)